CFG8PZ LGIR-EDDF

Flight info

Callsign CFG8PZ
Flight time N/A
Altitude 36000
Route EPALO UM749 DIRMI UL613 XANIS DCT DIMIS DCT PETAK/N0435F380 DCT GLOMY DCT ELTIB DCT TUPUS DCT GORPA DCT SIMBA DCT AKINI T161 DEBHI DEBHI1B
Aircraft A320/M-SDE3FGHIRWY/LB1

Departure

Time N/A
Airport Heraklion International Nikos Kazantzakis Airport (LGIR)

Arrival

Time 2026-05-06 17:33
Airport Frankfurt Main Airport (EDDF)
Time Latitude Longitude Altitude Speed Heading
2026-05-06 17:09 49.10265 10.85844 29893 ft 395 kts 313°
2026-05-06 17:09 49.12280 10.83007 29428 ft 392 kts 313°
2026-05-06 17:10 49.14244 10.80235 29010 ft 388 kts 313°
2026-05-06 17:10 49.16208 10.77449 28588 ft 384 kts 313°
2026-05-06 17:10 49.18151 10.74687 28179 ft 380 kts 313°
2026-05-06 17:10 49.20071 10.71945 27772 ft 375 kts 312°
2026-05-06 17:11 49.21922 10.69167 27337 ft 371 kts 310°
2026-05-06 17:11 49.23715 10.66357 26931 ft 367 kts 309°
2026-05-06 17:11 49.25472 10.63545 26514 ft 364 kts 309°
2026-05-06 17:11 49.27208 10.60745 26087 ft 361 kts 309°
2026-05-06 17:12 49.28936 10.57966 25669 ft 359 kts 309°
2026-05-06 17:12 49.30635 10.55252 25229 ft 357 kts 310°
2026-05-06 17:12 49.32354 10.52521 24797 ft 355 kts 310°
2026-05-06 17:12 49.34071 10.49804 24344 ft 354 kts 310°
2026-05-06 17:13 49.35775 10.47079 23894 ft 352 kts 307°
2026-05-06 17:13 49.37239 10.44094 23520 ft 352 kts 301°
2026-05-06 17:13 49.38647 10.40988 23128 ft 356 kts 301°
2026-05-06 17:13 49.40070 10.37872 22755 ft 356 kts 301°
2026-05-06 17:14 49.41490 10.34770 22413 ft 354 kts 301°
2026-05-06 17:14 49.42904 10.31685 22040 ft 353 kts 301°
2026-05-06 17:14 49.44311 10.28613 21682 ft 350 kts 301°
2026-05-06 17:14 49.45689 10.25595 21329 ft 349 kts 301°
2026-05-06 17:15 49.47075 10.22545 20976 ft 347 kts 301°
2026-05-06 17:15 49.48453 10.19505 20620 ft 345 kts 301°
2026-05-06 17:15 49.49821 10.16482 20270 ft 344 kts 301°
2026-05-06 17:15 49.51187 10.13466 19922 ft 343 kts 301°
2026-05-06 17:16 49.52544 10.10467 19570 ft 341 kts 301°
2026-05-06 17:16 49.53896 10.07472 19236 ft 340 kts 301°
2026-05-06 17:16 49.55241 10.04490 18881 ft 338 kts 301°
2026-05-06 17:16 49.56579 10.01522 18540 ft 337 kts 301°
2026-05-06 17:17 49.57896 9.98601 18203 ft 336 kts 301°
2026-05-06 17:17 49.59222 9.95658 17832 ft 334 kts 301°
2026-05-06 17:17 49.60545 9.92711 17486 ft 333 kts 301°
2026-05-06 17:17 49.61857 9.89783 17148 ft 331 kts 301°
2026-05-06 17:18 49.63161 9.86864 16810 ft 329 kts 301°
2026-05-06 17:18 49.64455 9.83963 16471 ft 327 kts 301°
2026-05-06 17:18 49.65741 9.81083 16140 ft 325 kts 301°
2026-05-06 17:18 49.67018 9.78221 15816 ft 323 kts 301°
2026-05-06 17:19 49.68287 9.75378 15485 ft 321 kts 301°
2026-05-06 17:19 49.69549 9.72551 15157 ft 319 kts 301°
2026-05-06 17:19 49.70785 9.69777 14840 ft 317 kts 302°
2026-05-06 17:19 49.72030 9.66979 14518 ft 315 kts 302°
2026-05-06 17:20 49.73269 9.64201 14201 ft 313 kts 302°
2026-05-06 17:20 49.74501 9.61433 13882 ft 312 kts 302°
2026-05-06 17:20 49.75725 9.58672 13555 ft 311 kts 302°
2026-05-06 17:20 49.76951 9.55930 13213 ft 309 kts 305°
2026-05-06 17:21 49.78515 9.53665 12918 ft 309 kts 322°
2026-05-06 17:21 49.80273 9.51782 12577 ft 307 kts 324°
2026-05-06 17:21 49.82038 9.49933 12224 ft 305 kts 324°
2026-05-06 17:21 49.83788 9.48097 11866 ft 303 kts 324°
2026-05-06 17:22 49.85529 9.46265 11503 ft 302 kts 324°
2026-05-06 17:22 49.87237 9.44465 11141 ft 300 kts 324°
2026-05-06 17:22 49.88956 9.42646 10795 ft 299 kts 324°
2026-05-06 17:22 49.90670 9.40825 10447 ft 298 kts 324°
2026-05-06 17:23 49.92373 9.39012 10094 ft 296 kts 324°
2026-05-06 17:23 49.94065 9.37199 9743 ft 295 kts 324°
2026-05-06 17:23 49.95747 9.35395 9346 ft 294 kts 324°
2026-05-06 17:23 49.97422 9.33599 8983 ft 291 kts 324°
2026-05-06 17:24 49.99081 9.31811 8619 ft 289 kts 324°
2026-05-06 17:24 50.00734 9.30036 8242 ft 288 kts 324°
2026-05-06 17:24 50.02384 9.28278 7955 ft 287 kts 324°
2026-05-06 17:24 50.04025 9.26527 7566 ft 286 kts 324°
2026-05-06 17:25 50.05667 9.24778 7182 ft 284 kts 324°
2026-05-06 17:25 50.07272 9.23071 6818 ft 282 kts 324°
2026-05-06 17:25 50.08734 9.21099 6453 ft 276 kts 304°
2026-05-06 17:25 50.09545 9.18440 6089 ft 271 kts 286°
2026-05-06 17:26 50.10086 9.15635 5848 ft 271 kts 284°
2026-05-06 17:26 50.10599 9.12815 5591 ft 270 kts 284°
2026-05-06 17:26 50.11113 9.10002 5354 ft 270 kts 284°
2026-05-06 17:26 50.11626 9.07202 5153 ft 269 kts 284°
2026-05-06 17:27 50.12131 9.04384 4941 ft 269 kts 283°
2026-05-06 17:27 50.12635 9.01585 4774 ft 269 kts 284°
2026-05-06 17:27 50.13023 8.98763 4592 ft 264 kts 272°
2026-05-06 17:27 50.12807 8.95956 4474 ft 262 kts 251°
2026-05-06 17:28 50.12190 8.93291 4347 ft 261 kts 249°
2026-05-06 17:28 50.11572 8.90672 4220 ft 262 kts 249°
2026-05-06 17:28 50.10958 8.88057 4104 ft 247 kts 249°
2026-05-06 17:28 50.10391 8.85644 3909 ft 232 kts 249°
2026-05-06 17:29 50.09841 8.83306 3625 ft 227 kts 249°
2026-05-06 17:29 50.09308 8.81044 3347 ft 217 kts 249°
2026-05-06 17:29 50.08799 8.78885 3057 ft 207 kts 250°
2026-05-06 17:29 50.08312 8.76824 2784 ft 199 kts 250°
2026-05-06 17:30 50.07844 8.74844 2559 ft 189 kts 250°
2026-05-06 17:30 50.07491 8.72971 2222 ft 173 kts 263°
2026-05-06 17:30 50.07347 8.71179 1946 ft 162 kts 263°
2026-05-06 17:30 50.07112 8.69533 1694 ft 151 kts 251°
2026-05-06 17:31 50.06754 8.68106 1587 ft 135 kts 252°
2026-05-06 17:31 50.06432 8.66708 1412 ft 140 kts 251°
2026-05-06 17:31 50.06094 8.65304 1253 ft 140 kts 250°
2026-05-06 17:31 50.05750 8.63907 1069 ft 135 kts 251°
2026-05-06 17:32 50.05430 8.62548 897 ft 134 kts 252°
2026-05-06 17:32 50.05109 8.61199 730 ft 132 kts 251°
2026-05-06 17:32 50.04789 8.59861 573 ft 133 kts 252°
2026-05-06 17:32 50.04467 8.58511 405 ft 133 kts 252°
2026-05-06 17:33 50.04174 8.57273 368 ft 104 kts 250°
2026-05-06 17:33 50.03976 8.56446 358 ft 65 kts 248°
2026-05-06 17:33 50.03883 8.55900 355 ft 39 kts 273°
2026-05-06 17:33 50.03905 8.55671 351 ft 6 kts 279°
2026-05-06 17:34 50.03905 8.55668 352 ft 0 kts 279°
2026-05-06 17:34 50.03905 8.55667 352 ft 1 kts 279°
2026-05-06 17:35 50.03930 8.55631 353 ft 9 kts 343°
2026-05-06 17:35 50.03978 8.55663 351 ft 6 kts 52°
2026-05-06 17:35 50.03993 8.55717 350 ft 5 kts 70°
2026-05-06 17:36 50.04028 8.55866 358 ft 14 kts 69°
2026-05-06 17:36 50.04072 8.56052 358 ft 22 kts 69°
2026-05-06 17:36 50.04131 8.56296 355 ft 23 kts 69°
2026-05-06 17:36 50.04182 8.56514 360 ft 20 kts 70°
2026-05-06 17:37 50.04214 8.56648 360 ft 11 kts 69°
2026-05-06 17:37 50.04236 8.56740 360 ft 8 kts 69°
2026-05-06 17:37 50.04253 8.56807 359 ft 6 kts 69°
2026-05-06 17:37 50.04274 8.56901 362 ft 14 kts 71°
2026-05-06 17:38 50.04319 8.57087 367 ft 21 kts 69°
2026-05-06 17:38 50.04371 8.57305 367 ft 21 kts 69°
2026-05-06 17:38 50.04424 8.57525 361 ft 23 kts 70°
2026-05-06 17:38 50.04481 8.57757 366 ft 22 kts 69°
2026-05-06 17:39 50.04514 8.57894 370 ft 17 kts 71°
2026-05-06 17:39 50.04546 8.58011 367 ft 11 kts 50°
2026-05-06 17:39 50.04668 8.57984 363 ft 17 kts 340°
2026-05-06 17:39 50.04778 8.57922 359 ft 16 kts 338°
2026-05-06 17:40 50.04826 8.57882 362 ft 8 kts 323°
2026-05-06 17:40 50.04861 8.57855 361 ft 5 kts 346°
2026-05-06 17:40 50.04881 8.57856 358 ft 3 kts
2026-05-06 17:40 50.04898 8.57864 359 ft 5 kts 17°
2026-05-06 17:41 50.04916 8.57874 359 ft 1 kts 22°
2026-05-06 17:41 50.04921 8.57877 359 ft 0 kts 22°